Location: Earls Croome
(52.0667°N, 2.2000°W)
Time: 22:25:11
(UTC+00:00)

SJ 16-02 - Pass Details

Date: 17 November 2019
Orbit: 606 x 616 km, 75.0° (Epoch: 13 December)

Event Time Altitude Azimuth Distance (km) Brightness Sun altitude
Exits shadow 03:37:51 13° 114° (ESE) 1,776 4.2 -35.5°
Maximum altitude 03:39:08 14° 95° (E) 1,690 4.2 -35.3°
Drops below altitude 10° 03:41:30 10° 62° (ENE) 1,967 4.7 -34.9°
Sets 03:44:38 0° 38° (NE) 2,877 5.4 -34.5°
